TIME,�g��[���C[MJ/h],����[MJ/h],�Ɩ�[MJ/h],�~�[[MJ/h],�①��[MJ/h],��y���[MJ/h],�Ǝ��q��[MJ/h],���̑�[MJ/h],�����G�l���M�[[MJ/h]
2004/1/1 0:00,0.4044,0,0.7567,0.0109,0.5273,0.6283,0.3375,0.1881,0
2004/1/1 0:15,0.5377,0,0.7612,0.0111,0.3296,0.7808,0.2737,-0.0736,0
2004/1/1 0:30,0.4288,0,0.7596,0.0111,0.5715,0.6369,0.2796,0.058,0
2004/1/1 0:45,0.5115,0,0.7608,0.0111,0.4622,0.7227,0.3457,-0.0114,0
2004/1/1 1:00,0.5115,0,0.7564,0.0111,0.5456,0.7613,0.268,0.1256,0
2004/1/1 1:15,0.432,0,0.5744,0.0111,0.2451,0.8796,0.2582,0.9936,0
2004/1/1 1:30,0.5355,0,0.5462,0.0109,0.6778,0.9527,0.24,0.392,0
2004/1/1 1:45,0.1382,0,0.2202,0.0109,0.3612,0.4213,0.3259,0.6192,0
2004/1/1 2:00,0.005,0,0,0.0108,0.6844,0.1911,0.2399,0.5391,0
2004/1/1 2:15,0.0049,0,0,0.0107,0.3505,0.1917,0.2566,0.5399,0
2004/1/1 2:30,0.005,0,0,0.0108,0.7831,0.1925,0.3126,0.5365,0
2004/1/1 2:45,0.005,0,0,0.0108,0.2439,0.1934,0.2447,0.5453,0
2004/1/1 3:00,0.005,0,0,0.0108,0.4945,0.1935,0.32,0.5459,0
2004/1/1 3:15,0.005,0,0,0.0109,0.3381,0.1948,0.256,0.5427,0
2004/1/1 3:30,0.005,0,0,0.0109,0.6967,0.1948,0.2436,0.5573,0
2004/1/1 3:45,0.0052,0,0.0001,0.0109,0.3195,0.1956,0.3227,0.5525,0
2004/1/1 4:00,0.005,0,0,0.0111,0.5592,0.196,0.2547,0.5568,0
2004/1/1 4:15,0.0052,0,0,0.0111,0.1742,0.1964,0.2517,0.5147,0
2004/1/1 4:30,0.005,0,0,0.0108,0.7332,0.1948,0.3144,0.5586,0
2004/1/1 4:45,0.005,0,0,0.0109,0.3904,0.1947,0.3264,0.5527,0
2004/1/1 5:00,0.005,0,0,0.0109,0.6695,0.1953,0.1885,0.541,0
2004/1/1 5:15,0.005,0,0.0003,0.0111,0.7547,0.1948,0.3233,0.5263,0
2004/1/1 5:30,0.005,0,0.0009,0.0109,0.9994,0.1951,0.2566,0.5628,0
2004/1/1 5:45,0.005,0,0.0003,0.0109,0.4982,0.195,0.3252,0.537,0
2004/1/1 6:00,0.005,0,0.0024,0.0109,0.6813,0.1944,0.2604,0.5495,0
2004/1/1 6:15,0.005,0,0.0003,0.0109,0.489,0.1934,0.2892,0.5315,0
2004/1/1 6:30,0.005,0,0.0003,0.0108,0.6072,0.1925,0.2576,0.544,0
2004/1/1 6:45,0.005,0,0.0016,0.0108,0.2845,0.1935,0.3239,0.5118,0
2004/1/1 7:00,0.0049,0,0.0003,0.0107,0.4248,0.2311,0.2593,0.5617,0
2004/1/1 7:15,0.005,0,0,0.0108,0.5252,0.1922,0.2642,0.5321,0
2004/1/1 7:30,1.3247,0,0.0618,0.0109,0.4471,1.7071,0.2569,0.0281,0
2004/1/1 7:45,0.976,0,0.0098,0.0109,0.5043,1.4152,0.4025,0.0039,0
2004/1/1 8:00,0.8267,0,0.019,0.0108,0.2439,1.3049,0.3347,0.4347,0
2004/1/1 8:15,0.6555,0,0,0.0108,0.5387,1.1556,0.3846,0.611,0
2004/1/1 8:30,0.7367,0,0.0877,0.0108,0.4463,1.2622,0.2575,0.2226,0
2004/1/1 8:45,0.7147,0,0.017,0.0108,0.6042,1.2324,0.3273,0.375,0
2004/1/1 9:00,0.5898,0,0.0141,0.0109,0.4072,1.0159,0.2503,0.5327,0
2004/1/1 9:15,0.651,0,0.0048,0.0108,0.6856,1.1006,0.3231,0.1231,0
2004/1/1 9:30,0.6278,0,0.0271,0.3002,0.3766,1.0994,0.3217,0.3977,0
2004/1/1 9:45,0.5596,0,0.0027,0.0109,0.41,1.0608,0.1891,0.3989,0
2004/1/1 10:00,0.5566,0,0.0075,0.0111,0.41,1.0607,0.3208,1.3791,0
2004/1/1 10:15,0.6134,0,0,0.0109,0.6215,1.1258,0.3172,0.4913,0
2004/1/1 10:30,0.4984,0,0,0.0109,0.3948,0.9276,0.2471,0.606,0
2004/1/1 10:45,0.5388,0,0.0723,0.0109,0.5289,0.9815,0.3936,0.6072,0
2004/1/1 11:00,0.5502,0,0.1273,0.0109,0.2436,0.9991,0.3502,0.5645,0
2004/1/1 11:15,0.559,0,0.4644,0.0109,0.5125,1.0099,0.4103,0.4812,0
2004/1/1 11:30,0.5518,0,0.5806,0.0111,0.5216,0.9946,0.2949,0.6093,0
2004/1/1 11:45,0.5456,0,0.4257,0.0109,0.5175,0.9989,0.2249,0.4939,0
2004/1/1 12:00,0.4795,0,0.4208,0.0109,0.5018,0.9507,0.3275,0.5691,0
2004/1/1 12:15,0.4709,0,0.4152,0.0109,0.3401,0.9148,0.339,0.592,0
2004/1/1 12:30,0.5332,0,0.4133,0.0111,0.4002,0.955,0.195,0.3624,0
2004/1/1 12:45,0.3979,0,0.4131,0.0111,0.4625,0.8588,0.3322,0.3172,0
2004/1/1 13:00,0.5319,0,0.4123,0.0111,0.6664,0.9956,0.2628,0.0245,0
2004/1/1 13:15,0.3987,0,0.4098,0.195,0.3869,0.8447,0.2586,0.1335,0
2004/1/1 13:30,0.5273,0,0.408,0.0109,0.65,0.9366,0.3247,0.093,0
2004/1/1 13:45,0.4078,0,0.4067,0.0109,0.1068,0.8401,0.2601,0.1457,0
2004/1/1 14:00,0.5247,0,0.4067,0.0109,0.7066,0.9701,0.2627,0.039,0
2004/1/1 14:15,0.5358,0,0.4078,0.0111,0.4084,0.9445,0.3326,0.0706,0
2004/1/1 14:30,0.4608,0,0.4059,0.0109,0.6211,0.8912,0.2618,0.0965,0
2004/1/1 14:45,0.4758,0,0.4052,0.0109,0.2691,0.9252,0.2619,0.09,0
2004/1/1 15:00,0.5345,0,0.4234,0.0108,0.466,0.9675,0.2568,0.0204,0
2004/1/1 15:15,0.4028,0,0.4064,0.0109,0.5086,0.9174,0.3164,0.1453,0
2004/1/1 15:30,0.5263,0,0.4067,0.0109,0.5263,1.5288,0.2576,-0.0261,0
2004/1/1 15:45,0.4221,0,0.4879,0.0111,0.5344,1.3776,0.3486,0.5102,0
2004/1/1 16:00,0.5021,0,0.4455,0.0109,0.3178,1.4725,0.2595,0.5023,0
2004/1/1 16:15,0.5232,0,0.7829,0.0108,0.4522,1.5062,0.2484,0.4355,0
2004/1/1 16:30,0.393,0,0.8358,0.0109,0.5426,1.3795,0.3204,0.5813,0
2004/1/1 16:45,0.5211,0,0.8209,0.0108,0.6404,1.4927,0.2461,0.4503,0
2004/1/1 17:00,0.5224,0,1.0227,0.0111,0.552,1.5091,0.2527,0.453,0
2004/1/1 17:15,0.5247,0,1.7603,0.0111,1.1164,1.4797,0.3218,0.6316,0
2004/1/1 17:30,0.4909,0,1.9283,0.0111,0.5406,1.4325,0.3292,0.3832,0
2004/1/1 17:45,0.4352,0,1.7565,0.0109,0.8312,1.3461,0.1819,0.4906,0
2004/1/1 18:00,0.5309,0,1.2273,1.2478,0.4437,1.152,0.3495,0.3938,0
2004/1/1 18:15,0.5288,0,0.8738,0.0109,0.7299,0.984,0.3347,0.0593,0
2004/1/1 18:30,0.393,0,0.876,0.0111,0.4298,0.827,0.214,0.2256,0
2004/1/1 18:45,0.5211,0,0.8749,0.0109,0.4548,0.9503,0.3492,0.1293,0
2004/1/1 19:00,0.3921,0,0.9624,0.0111,0.4553,0.8716,0.2652,0.1826,0
2004/1/1 19:15,0.5196,0,1.0212,0.0109,0.6055,0.937,0.2788,0.1044,0
2004/1/1 19:30,0.3875,0,0.8748,0.0109,0.4861,0.8029,0.2807,0.2366,0
2004/1/1 19:45,0.4118,0,0.8738,0.0109,0.3766,0.8338,0.3349,0.1754,0
2004/1/1 20:00,0.4879,0,0.8748,0.0108,0.4873,0.9347,0.2812,0.0992,0
2004/1/1 20:15,0.3907,0,0.8751,0.0109,0.5388,0.8474,0.2733,0.1375,0
2004/1/1 20:30,0.5151,0,0.8836,0.0108,0.5577,0.9631,0.3385,0.0399,0
2004/1/1 20:45,0.3864,0,0.8736,0.0109,0.3005,0.831,0.2866,0.1764,0
2004/1/1 21:00,0.4271,0,0.8836,0.0109,0.536,0.8575,0.2864,0.1243,0
2004/1/1 21:15,0.4696,0,0.9372,0.0108,0.4455,1.0349,0.34,0.2195,0
2004/1/1 21:30,0.3914,0,0.5707,0.0108,0.5917,1.021,0.3439,0.1521,0
2004/1/1 21:45,0.518,0,0.5566,0.0109,0.3662,1.1281,0.2791,0.0861,0
2004/1/1 22:00,0.39,0,0.5508,0.0108,0.5383,1.032,0.2776,0.193,0
2004/1/1 22:15,0.5144,0,0.5502,0.0111,0.1551,1.1408,0.3486,0.1076,0
2004/1/1 22:30,0.3864,0,0.776,0.0109,0.6975,1.0284,0.2788,0.1843,0
2004/1/1 22:45,0.3888,0,0.8883,0.0111,0.3606,1.0308,0.2703,0.2131,0
2004/1/1 23:00,0.5138,0,0.9386,0.0112,0.6852,1.1615,0.3417,0.0945,0
2004/1/1 23:15,0.3846,0,0.5494,0.0109,0.2975,1.0176,0.2059,0.255,0
2004/1/1 23:30,0.3879,0,0.7612,0.0109,0.5508,1.0189,0.3466,0.2424,0
2004/1/1 23:45,0.3953,0,0.8657,0.0102,0.1519,0.9683,0.2782,0.2219,0
2004/1/2 0:00,0.3876,0,0.9868,0.0111,0.6922,1.0284,0.2082,0.236,0
2004/1/2 0:15,0.4287,0,1.5548,0.0111,0.4064,0.8428,0.3318,0.0933,0
2004/1/2 0:30,0.4703,0,1.9981,0.0109,0.6434,0.7933,0.2519,0.0317,0
2004/1/2 0:45,0.3859,0,0.553,0.0109,0.4144,0.7713,0.3203,0.1699,0
2004/1/2 1:00,0.0049,0,0,0.0108,0.5168,0.1918,0.3152,0.562,0
2004/1/2 1:15,0.005,0,0,0.0107,0.2436,0.1912,0.247,0.5581,0
2004/1/2 1:30,0.0049,0,0,0.0108,0.6119,0.1922,0.3118,0.5508,0
2004/1/2 1:45,0.005,0,0,0.0108,0.4516,0.193,0.1856,0.5525,0
2004/1/2 2:00,0.005,0,0,0.0109,0.5517,0.1931,0.325,0.5823,0
2004/1/2 2:15,0.005,0,0,0.0109,0.3334,0.196,0.3158,0.5665,0
2004/1/2 2:30,0.0052,0,0,0.0109,0.375,0.1953,0.2493,0.5527,0
2004/1/2 2:45,0.0049,0,0,0.0108,0.4088,0.1925,0.2552,0.5391,0
2004/1/2 3:00,0.0049,0,0.0001,0.0108,0.6088,0.1922,0.2543,0.5892,0
2004/1/2 3:15,0.005,0,0,0.0108,0.3849,0.1927,0.327,0.5391,0
2004/1/2 3:30,0.005,0,0,0.0108,0.4743,0.1934,0.1876,0.5567,0
2004/1/2 3:45,0.005,0,0.0003,0.0109,0.2094,0.1938,0.3216,0.5535,0
2004/1/2 4:00,0.005,0,0.0012,0.0109,0.6284,0.1938,0.3192,0.5455,0
2004/1/2 4:15,0.005,0,0,0.0109,0.4536,0.1938,0.1899,0.5482,0
2004/1/2 4:30,0.005,0,0,0.0108,0.6814,0.1937,0.3266,0.5763,0
2004/1/2 4:45,0.0049,0,0.0003,0.0109,0.5619,0.1941,0.322,0.5639,0
2004/1/2 5:00,0.005,0,0.0003,0.0109,1.1003,0.1931,0.2566,0.5609,0
2004/1/2 5:15,0.005,0,0,0.0109,0.5122,0.1937,0.2612,0.5508,0
2004/1/2 5:30,0.005,0,0.0013,0.0108,0.7664,0.1931,0.2544,0.5417,0
2004/1/2 5:45,0.0049,0,0,0.0109,0.3878,0.1937,0.3244,0.5481,0
2004/1/2 6:00,0.005,0,0.0019,0.0108,0.6827,0.1924,0.2585,0.5524,0
2004/1/2 6:15,0.005,0,0.0012,0.0108,0.2408,0.1924,0.2605,0.5459,0
2004/1/2 6:30,0.0049,0,0.001,0.0108,0.4454,0.1917,0.3348,0.5541,0
2004/1/2 6:45,0.0049,0,0.0017,0.0107,0.4215,0.1918,0.2665,0.528,0
2004/1/2 7:00,0.005,0,0.0049,0.0109,0.5723,0.2317,0.2624,0.5803,0
2004/1/2 7:15,0.005,0,0.0014,0.0109,0.4416,0.1922,0.3288,0.5329,0
2004/1/2 7:30,0.005,0,0,0.0108,0.3933,0.193,0.2645,0.526,0
2004/1/2 7:45,0.005,0,0,0.0109,0.326,0.2297,0.2733,0.5593,0
2004/1/2 8:00,1.0122,0,0.0662,0.0109,0.4916,1.4551,0.3573,-0.4006,0
2004/1/2 8:15,1.0945,0,0,0.0108,0.5426,1.3578,0.2892,-0.4375,0
2004/1/2 8:30,0.9783,0,0.0264,0.0109,0.4046,1.2113,0.6211,-0.3885,0
2004/1/2 8:45,0.7811,0,0.0154,0.0108,0.3851,1.0058,0.6636,1.1147,0
2004/1/2 9:00,0.7484,0,0.0337,0.5494,0.417,1.1559,0.8785,0.5761,0
2004/1/2 9:15,0.5914,0,0,0.5751,0.6224,1.0326,0.336,0.1884,0
2004/1/2 9:30,0.723,0,0,0.0109,0.3321,1.1533,0.2602,0.088,0
2004/1/2 9:45,0.6261,0,0,0.0108,0.47,1.1025,0.3332,0.0909,0
2004/1/2 10:00,0.6545,0,0.1113,0.0109,0.3964,1.1066,0.5108,0.125,0
2004/1/2 10:15,0.5645,0,0.5433,0.0109,0.6284,1.0511,0.327,0.8781,0
2004/1/2 10:30,0.5593,0,0.0004,0.0108,0.3214,0.8921,0.2562,2.1109,0
2004/1/2 10:45,0.5108,0,1.7726,0.0108,0.4355,0.791,0.3413,0.3564,0
2004/1/2 11:00,0.5446,0,0,0.0111,0.3017,1.4717,0.3586,-0.0422,0
2004/1/2 11:15,0.561,0,0.0192,0.0111,0.6775,1.492,0.2169,-0.0724,0
2004/1/2 11:30,0.606,0,0.03,0.0112,0.3544,1.5149,0.3535,-0.0042,0
2004/1/2 11:45,0.5705,0,0.0354,0.0111,0.5604,1.6962,0.2625,0.0567,0
2004/1/2 12:00,0.4765,0,0.0193,0.0111,0.2449,1.6458,0.3561,0.2049,0
2004/1/2 12:15,0.5412,0,0,0.0112,0.6589,1.6929,0.2742,0.1643,0
2004/1/2 12:30,0.5462,0,0,0.0109,0.433,1.5839,0.3456,0.1097,0
2004/1/2 12:45,0.5279,0,0,0.0108,0.5845,0.9546,0.2137,0.1274,0
2004/1/2 13:00,0.4284,0,0.0184,0.5115,0.5525,0.8662,0.3529,0.3011,0
2004/1/2 13:15,0.5446,0,0,0.0109,0.5691,1.5782,0.283,0.1655,0
2004/1/2 13:30,0.5515,0,0.0742,0.0108,0.6585,1.6883,0.3289,0.1005,0
2004/1/2 13:45,0.5449,0,0.0603,0.0109,0.2687,1.4152,0.2462,0.002,0
2004/1/2 14:00,0.4133,0,0.0016,0.0109,0.6438,0.8425,0.3352,0.1234,0
2004/1/2 14:15,0.5491,0,0.0016,0.0109,0.7089,0.991,0.5041,0.015,0
2004/1/2 14:30,0.5308,0,0,0.0108,0.2307,0.9625,0.3156,-0.0036,0
2004/1/2 14:45,0.1392,0,0,0.0109,0.5782,0.7844,0.3156,0.3912,0
2004/1/2 15:00,0.0049,0,0,0.0108,0.6574,0.7495,0.1853,0.5666,0
2004/1/2 15:15,0.005,0,0,0.0109,0.4019,0.7478,0.3223,0.5399,0
2004/1/2 15:30,0.005,0,0,0.0108,0.6064,0.7452,0.2457,0.5633,0
2004/1/2 15:45,0.005,0,0,0.0108,0.4781,0.7351,0.3108,0.5476,0
2004/1/2 16:00,0.0049,0,0,0.0108,0.5049,0.7167,0.1839,0.5443,0
2004/1/2 16:15,0.0049,0,0,0.0107,0.8585,0.5832,0.3125,0.5851,0
2004/1/2 16:30,0.005,0,0.1748,0.0107,0.9073,0.2232,0.2516,0.543,0
2004/1/2 16:45,0.5816,0,1.1389,0.0108,0.7661,0.7988,0.2523,0.715,0
2004/1/2 17:00,0.9363,0,2.2679,0.0107,0.7805,1.3712,0.2529,0.0294,0
2004/1/2 17:15,0.6407,0,2.0262,0.0108,0.4611,1.5123,0.4111,0.3537,0
2004/1/2 17:30,0.5623,0,2.2709,0.0108,0.757,1.532,0.2651,0.6094,0
2004/1/2 17:45,0.559,0,2.6009,0.0108,0.7507,1.5545,0.2697,0.5773,0
2004/1/2 18:00,0.5541,0,2.5525,0.0108,0.2029,1.4862,0.2629,0.5403,0
2004/1/2 18:15,0.5537,0,2.5739,0.0108,0.7266,1.0418,0.3319,0.2935,0
2004/1/2 18:30,0.5517,0,2.5406,0.0108,0.6895,0.9863,0.2697,0.3946,0
2004/1/2 18:45,0.5471,0,2.1387,0.0108,0.4103,0.9795,0.2709,0.628,0
2004/1/2 19:00,0.509,0,1.9181,0.0108,0.4716,0.972,0.2727,0.7157,0
2004/1/2 19:15,0.4373,0,1.9378,0.0108,0.7114,0.9042,0.3347,0.7381,0
2004/1/2 19:30,0.5363,0,1.9709,0.0109,0.4615,0.9645,0.2002,0.5592,0
2004/1/2 19:45,0.5377,0,1.9562,0.0108,0.6126,0.9747,0.3365,0.337,0
2004/1/2 20:00,0.271,0,2.373,0.0107,0.5075,0.8251,0.2671,0.4526,0
2004/1/2 20:15,0.5401,0,2.5213,0.0108,0.4854,0.9943,0.2684,0.1348,0
2004/1/2 20:30,0.4029,0,2.5517,0.0108,0.5797,0.9782,0.2546,1.1606,0
2004/1/2 20:45,0.5374,0,2.4862,0.0108,0.6667,1.4376,0.3165,0.5731,0
2004/1/2 21:00,0.4671,0,2.8776,0.0108,0.5175,0.9003,0.18,0.4003,0
2004/1/2 21:15,0.5354,0,3.3535,0.0108,0.4395,1.133,0.3139,0.2928,0
2004/1/2 21:30,0.5016,0,3.4092,0.0108,0.5815,1.7145,0.3148,0.5805,0
2004/1/2 21:45,0.54,0,3.4161,0.0109,0.6928,1.7415,0.2422,0.7828,0
2004/1/2 22:00,0.5436,0,3.6089,0.0108,0.4166,1.7483,0.2504,0.7721,0
2004/1/2 22:15,0.5419,0,3.3795,0.0109,0.4591,1.7094,0.2481,0.6716,0
2004/1/2 22:30,0.4062,0,3.381,0.0109,0.7089,0.8423,0.3165,0.5839,0
2004/1/2 22:45,0.5363,0,3.4145,0.0109,0.5357,0.9943,0.1822,0.4477,0
2004/1/2 23:00,0.4905,0,3.8148,0.0109,0.338,0.9187,0.3184,0.4654,0
2004/1/2 23:15,0.4454,0,2.4036,0.0108,0.7193,0.8808,0.2429,0.8974,0
2004/1/2 23:30,0.544,0,1.5408,0.0109,0.543,0.9778,0.253,0.1983,0
2004/1/2 23:45,0.5426,0,0.7779,0.0109,0.5331,0.9737,0.2498,0.1961,0
2004/1/3 0:00,0.4941,0,0.9516,0.0109,0.5073,0.918,0.3257,0.3135,0
2004/1/3 0:15,0.4573,0,0.8459,0.0112,0.4994,0.8868,0.2477,0.3358,0
2004/1/3 0:30,0.5412,0,0.7383,0.0111,0.5867,0.9852,0.3174,0.2568,0
2004/1/3 0:45,0.4049,0,1.5392,0.0109,0.678,0.8444,0.2493,0.2151,0
2004/1/3 1:00,0.2709,0,1.9486,0.0111,0.3083,0.5855,0.2516,0.4084,0
2004/1/3 1:15,0.0052,0,0.6041,0.0109,0.5394,0.3734,0.2412,0.5992,0
2004/1/3 1:30,0.005,0,0.5479,0.0111,0.6723,0.3853,0.318,0.517,0
2004/1/3 1:45,0.005,0,0.0036,0.0108,0.4019,0.186,0.1801,0.5363,0
2004/1/3 2:00,0.005,0,0,0.0109,0.6314,0.1855,0.3144,0.527,0
2004/1/3 2:15,0.005,0,0,0.0109,0.3334,0.1873,0.3195,0.5414,0
2004/1/3 2:30,0.0052,0,0,0.0109,0.6106,0.1876,0.1826,0.5348,0
2004/1/3 2:45,0.005,0,0,0.0109,0.6408,0.1852,0.3292,0.5384,0
2004/1/3 3:00,0.0049,0,0,0.0108,0.4674,0.184,0.1829,0.5207,0
2004/1/3 3:15,0.005,0,0,0.0108,0.9491,0.1837,0.3211,0.5167,0
2004/1/3 3:30,0.005,0,0,0.0108,0.8173,0.1845,0.2506,0.5384,0
2004/1/3 3:45,0.005,0,0,0.0109,0.8037,0.1858,0.2582,0.5345,0
2004/1/3 4:00,0.005,0,0,0.0111,0.592,0.1865,0.2477,0.5606,0
2004/1/3 4:15,0.0052,0,0.0003,0.0109,0.6313,0.1871,0.3302,0.5473,0
2004/1/3 4:30,0.005,0,0,0.0111,0.631,0.1875,0.1862,0.5466,0
2004/1/3 4:45,0.0052,0,0,0.0111,0.2874,0.1872,0.3236,0.5651,0
2004/1/3 5:00,0.005,0,0,0.0111,0.6828,0.1872,0.256,0.5342,0
2004/1/3 5:15,0.0052,0,0,0.0109,0.3629,0.1869,0.2586,0.5335,0
2004/1/3 5:30,0.005,0,0.0006,0.0109,0.6756,0.1869,0.3102,0.5383,0
2004/1/3 5:45,0.005,0,0.0003,0.0111,0.3624,0.1859,0.2418,0.5367,0
2004/1/3 6:00,0.0052,0,0,0.0108,0.777,0.1858,0.3269,0.5309,0
2004/1/3 6:15,0.005,0,0,0.0109,0.288,0.1856,0.1886,0.5325,0
2004/1/3 6:30,0.0049,0,0.0003,0.0108,0.4946,0.184,0.3204,0.5399,0
2004/1/3 6:45,0.005,0,0,0.0108,0.4562,0.1839,0.256,0.5288,0
2004/1/3 7:00,0.0049,0,0.0007,0.0107,0.6029,0.2226,0.2578,0.52,0
2004/1/3 7:15,0.7415,0,0.0096,0.0108,0.4522,1.0187,0.2562,0.3597,0
2004/1/3 7:30,1.1922,0,0.0985,0.0108,0.6225,1.6498,0.3334,-0.2189,0
2004/1/3 7:45,0.904,0,0,0.0108,0.4648,1.3458,0.2755,0.003,0
2004/1/3 8:00,0.753,0,0.0023,0.0109,0.3544,1.1707,0.327,0.2864,0
2004/1/3 8:15,0.7332,0,0,0.0109,0.5396,1.1759,0.4045,0.4879,0
2004/1/3 8:30,0.7311,0,0,0.0108,0.5246,1.1673,0.2516,0.2964,0
2004/1/3 8:45,0.5924,0,0,0.0108,0.5702,1.0024,0.3207,0.38,0
2004/1/3 9:00,0.7363,0,0,0.0108,0.4452,1.1801,0.2559,0.2424,0
2004/1/3 9:15,0.5793,0,0.0314,0.0108,0.7222,1.0332,0.251,0.2605,0
2004/1/3 9:30,0.5793,0,0.0281,0.0109,0.1636,1.0129,0.4503,0.1954,0
2004/1/3 9:45,0.5789,0,0,0.0107,0.7236,0.9936,0.2892,1.8135,0
2004/1/3 10:00,0.0052,0,0.3257,0.0108,0.4202,0.4121,0.3332,1.5574,0
2004/1/3 10:15,0.005,0,1.4671,0.0108,0.5949,0.4162,0.2648,0.5348,0
2004/1/3 10:30,0.0049,0,0.4779,0.0109,0.3934,0.4173,0.5327,0.4987,0
2004/1/3 10:45,0.0052,0,0.0386,0.0111,0.3463,0.4173,0.2673,0.4522,0
2004/1/3 11:00,0.005,0,0,0.0109,0.5655,0.4202,0.307,0.7986,0
2004/1/3 11:15,0.005,0,0,0.0111,0.4992,0.4215,0.3139,0.5031,0
2004/1/3 11:30,0.0052,0,0,0.0109,0.6591,0.4208,0.2432,0.4919,0
2004/1/3 11:45,0.005,0,0,0.0112,0.326,0.4208,0.3148,0.4971,0
2004/1/3 12:00,0.0052,0,0,0.0109,0.7746,0.4575,0.257,0.4743,0
2004/1/3 12:15,0.005,0,0,0.0109,0.3525,0.4183,0.2506,0.4732,0
2004/1/3 12:30,0.005,0,0,0.0109,0.4716,0.4164,0.2474,0.4717,0
2004/1/3 12:45,0.005,0,0,0.0111,0.574,0.4206,0.32,0.4738,0
2004/1/3 13:00,0.0052,0,0,0.0109,0.4971,0.4211,0.1976,0.4692,0
2004/1/3 13:15,0.005,0,0,0.0111,0.5669,0.4195,0.3338,0.4717,0
2004/1/3 13:30,0.0052,0,0,0.0109,0.2645,0.4211,0.2668,0.4821,0
2004/1/3 13:45,0.005,0,0,0.0111,0.7076,0.4216,0.266,0.4553,0
2004/1/3 14:00,0.0052,0,0,0.0111,0.5852,0.5018,0.2732,0.4899,0
2004/1/3 14:15,0.005,0,0,0.0111,0.5492,0.9075,0.3479,0.453,0
2004/1/3 14:30,0.005,0,0,0.0109,1.0914,0.9144,0.2107,0.4909,0
2004/1/3 14:45,0.005,0,0,0.0111,0.6703,0.8425,0.3468,0.5543,0
2004/1/3 15:00,0.005,0,0.0337,0.0111,0.8673,0.9347,0.3354,0.5527,0
2004/1/3 15:15,0.005,0,0.0203,0.0109,0.6695,0.8791,0.3015,0.5492,0
2004/1/3 15:30,0.005,0,0.2157,0.0111,0.5485,0.4175,0.3933,0.5581,0
2004/1/3 15:45,0.0052,0,0.1126,0.0109,0.6576,0.4159,0.3407,0.5638,0
2004/1/3 16:00,0.005,0,0,0.0109,0.3269,0.4162,0.2756,0.5772,0
2004/1/3 16:15,0.0049,0,0,0.0108,0.6291,0.4114,0.2665,0.5345,0
2004/1/3 16:30,0.7236,0,0.2654,0.0108,0.6146,1.0791,0.2706,-0.181,0
2004/1/3 16:45,0.832,0,0.778,0.0108,0.3963,1.0102,0.2566,-0.2362,0
2004/1/3 17:00,0.7487,0,1.0902,0.0112,0.7564,1.0426,0.3352,0.8316,0
2004/1/3 17:15,0.5773,0,1.0947,0.0112,0.5476,1.4809,0.2658,1.9548,0
2004/1/3 17:30,0.5894,0,1.0428,0.0111,0.4162,1.5041,0.2739,0.3849,0
2004/1/3 17:45,0.671,0,1.0375,0.0111,0.5927,1.6335,0.2609,-0.0033,0
2004/1/3 18:00,0.5766,0,1.0346,0.0111,0.438,1.5051,0.327,0.2267,0
2004/1/3 18:15,0.5551,0,1.0395,0.0111,0.6888,1.4924,0.1947,1.1925,0
2004/1/3 18:30,0.5484,0,1.3768,1.4005,0.4077,1.3663,0.3345,0.2527,0
2004/1/3 18:45,0.5136,0,1.2756,0.0109,0.7242,0.9183,0.2582,0.2196,0
2004/1/3 19:00,0.4431,0,1.2588,0.0111,0.5946,0.8875,0.2716,0.2256,0
2004/1/3 19:15,0.5345,0,1.248,0.0109,0.3213,0.9959,0.3178,0.0228,0
2004/1/3 19:30,0.5351,0,1.2396,0.0109,0.668,1.0475,0.3362,0.0168,0
2004/1/3 19:45,0.396,0,1.24,0.0111,0.364,0.9066,0.1943,0.2677,0
2004/1/3 20:00,0.448,0,1.2306,0.0108,0.6889,0.9372,0.3299,0.1647,0
2004/1/3 20:15,0.4725,0,1.2843,0.0107,0.4743,1.0377,0.193,0.1788,0
2004/1/3 20:30,0.5021,0,1.3684,0.0108,0.4188,1.0544,0.3289,0.157,0
2004/1/3 20:45,0.4216,0,1.151,0.0108,0.6525,0.9818,0.2618,0.2876,0
2004/1/3 21:00,0.5273,0,1.1537,0.0108,0.4094,1.0342,0.2621,0.1901,0
2004/1/3 21:15,0.3993,0,0.7991,0.0108,0.6994,0.8866,0.2661,0.2848,0
2004/1/3 21:30,0.5319,0,0.755,0.0109,0.4068,0.977,0.3439,0.5849,0
2004/1/3 21:45,0.3979,0,0.7504,0.0108,0.7583,0.787,0.2066,0.3794,0
2004/1/3 22:00,0.526,0,0.7953,0.0108,0.3636,0.9374,0.3375,0.1702,0
2004/1/3 22:15,0.3979,0,0.8669,0.0109,0.5069,0.7978,0.2354,0.4208,0
2004/1/3 22:30,0.5282,0,0.5378,0.0109,0.6038,0.904,0.3453,0.2949,0
2004/1/3 22:45,0.3928,0,0.5374,0.0111,0.4347,0.7622,0.2082,0.4442,0
2004/1/3 23:00,0.3918,0,0.5586,0.0109,0.6651,0.7929,0.3411,0.3552,0
2004/1/3 23:15,0.5206,0,1.0129,0.0112,0.1463,0.9346,0.2779,0.2699,0
2004/1/3 23:30,0.3904,0,0.9202,0.0111,0.7237,0.8011,0.2769,0.4399,0
2004/1/3 23:45,0.3895,0,1.0966,0.0111,0.4173,0.7885,0.2742,0.321,0
2004/1/4 0:00,0.3868,0,1.0812,0.0111,0.6041,0.8028,0.346,0.3105,0
2004/1/4 0:15,0.3872,0,2.1822,0.0112,0.5054,0.8168,0.2095,0.3008,0
2004/1/4 0:30,0.3894,0,0.6081,0.0111,0.8384,0.806,0.4393,0.2533,0
2004/1/4 0:45,0.5312,0,0.9989,0.0111,0.9924,0.952,0.2727,-0.0258,0
2004/1/4 1:00,0.3979,0,1.0475,0.0111,0.563,0.7567,0.2645,0.058,0
2004/1/4 1:15,0.5208,0,1.0535,0.0108,0.7151,0.8604,0.3299,-0.059,0
2004/1/4 1:30,0.005,0,0.0683,0.0111,0.4869,0.2,0.2654,0.5479,0
2004/1/4 1:45,0.005,0,0,0.0109,0.6843,0.1689,0.2701,0.5632,0
2004/1/4 2:00,0.0052,0,0,0.0111,0.2064,0.1704,0.339,0.5649,0
2004/1/4 2:15,0.005,0,0,0.0108,0.7006,0.1663,0.2009,0.5404,0
2004/1/4 2:30,0.0049,0,0,0.0108,0.3288,0.1652,0.3349,0.5429,0
2004/1/4 2:45,0.0049,0,0,0.0107,0.6646,0.1652,0.3263,0.5452,0
2004/1/4 3:00,0.005,0,0,0.0109,0.1424,0.1666,0.2043,0.5606,0
2004/1/4 3:15,0.005,0,0,0.0108,0.664,0.1666,0.3364,0.5625,0
2004/1/4 3:30,0.0049,0,0,0.0109,0.3584,0.1673,0.2752,0.577,0
2004/1/4 3:45,0.005,0,0,0.0108,0.6952,0.1666,0.2801,0.5691,0
2004/1/4 4:00,0.005,0,0,0.0109,0.3321,0.1676,0.3396,0.544,0
2004/1/4 4:15,0.005,0,0,0.0109,0.7618,0.1675,0.2748,0.5687,0
2004/1/4 4:30,0.005,0,0,0.0109,0.2474,0.1678,0.2775,0.5579,0
2004/1/4 4:45,0.005,0,0,0.0109,0.5838,0.1672,0.2691,0.5753,0
2004/1/4 5:00,0.005,0,0,0.0109,0.3275,0.1668,0.3505,0.5476,0
2004/1/4 5:15,0.0049,0,0,0.0108,0.6983,0.1663,0.2781,0.5759,0
2004/1/4 5:30,0.005,0,0.0007,0.0109,0.3293,0.1679,0.2766,0.5622,0
2004/1/4 5:45,0.005,0,0.0003,0.0109,0.6044,0.167,0.3429,0.5698,0
2004/1/4 6:00,0.005,0,0.0006,0.0108,0.14,0.1657,0.288,0.5862,0
2004/1/4 6:15,0.005,0,0,0.0108,0.6444,0.1649,0.2884,0.5527,0
2004/1/4 6:30,0.0049,0,0.0009,0.0108,0.3839,0.1652,0.3594,0.5299,0
2004/1/4 6:45,0.0049,0,0,0.0108,0.5684,0.1666,0.2784,0.5579,0
2004/1/4 7:00,0.0052,0,0.0019,0.0109,0.2936,0.2059,0.2809,0.5331,0
2004/1/4 7:15,0.005,0,0.0003,0.0108,0.3609,0.167,0.2809,0.5571,0
2004/1/4 7:30,1.2561,0,0,0.0109,0.4743,1.6377,0.3607,0.0888,0
2004/1/4 7:45,0.9707,0,0.0658,0.0111,0.5423,1.4658,0.2906,-0.0448,0
2004/1/4 8:00,0.8417,0,0,0.0109,0.4884,1.3366,0.3813,0.0416,0
2004/1/4 8:15,0.707,0,0.0065,0.0108,0.327,1.2007,0.312,0.3705,0
2004/1/4 8:30,0.6407,0,0.049,0.0109,0.4244,1.1411,0.3328,1.1566,0
2004/1/4 8:45,0.7335,0,0.0222,0.0109,0.5116,1.2424,0.7659,0.6219,0
2004/1/4 9:00,0.6241,0,0.052,1.3787,0.5154,1.0835,0.7975,0.8657,0
2004/1/4 9:15,0.6602,0,0.0301,0.7586,0.4435,1.1467,0.5937,0.4817,0
2004/1/4 9:30,0.5607,0,0.0612,0.0109,0.5953,1.0351,0.3381,0.2964,0
2004/1/4 9:45,0.5532,0,0.0546,0.0109,0.538,1.0263,0.3313,0.2631,0
2004/1/4 10:00,0.5456,0,0.0544,0.0109,0.396,1.0194,0.2591,0.2304,0
2004/1/4 10:15,0.5465,0,0.0066,0.1924,0.3853,1.0338,0.2627,0.0654,0
2004/1/4 10:30,0.1391,0,0.0065,0.0108,0.5613,0.4742,0.2776,2.5263,0
2004/1/4 10:45,0.0052,0,1.4455,0.0109,0.4958,0.3178,0.3501,0.5178,0
2004/1/4 11:00,0.005,0,0.8672,0.0111,0.5678,0.5305,0.4972,0.4494,0
2004/1/4 11:15,0.005,0,0,0.0111,0.6172,0.5289,0.3226,0.4483,0
2004/1/4 11:30,0.005,0,0,0.0111,0.9903,0.5207,0.3273,0.4558,0
2004/1/4 11:45,0.0052,0,0,0.7165,0.7697,0.4035,0.2123,0.8276,0
2004/1/4 12:00,0.005,0,0,0.7383,0.6417,0.4274,0.3362,0.6401,0
2004/1/4 12:15,0.0052,0,0.0654,0.0111,0.6679,0.4055,0.3344,0.5581,0
2004/1/4 12:30,0.0052,0,0.0084,0.0112,0.5354,0.2418,0.4764,0.5178,0
2004/1/4 12:45,0.0052,0,0,0.0111,0.595,0.1724,0.348,0.472,0
2004/1/4 13:00,0.0052,0,0,0.0111,0.3221,0.1724,0.328,0.4772,0
2004/1/4 13:15,0.005,0,0,0.0109,0.6631,0.1701,0.3187,0.4995,0
2004/1/4 13:30,0.0052,0,0,0.0111,0.3604,0.1706,0.3224,0.488,0
2004/1/4 13:45,0.005,0,0,0.0109,0.5351,0.1711,0.2517,0.4841,0
2004/1/4 14:00,0.005,0,0,0.0109,0.3279,0.1698,0.2565,0.4828,0
2004/1/4 14:15,0.0052,0,0,0.0109,0.6866,0.1689,0.3217,0.4902,0
2004/1/4 14:30,0.0049,0,0,0.0109,0.3347,0.1696,0.2406,0.4909,0
2004/1/4 14:45,0.005,0,0,0.0109,0.4503,0.1689,0.3175,0.492,0
2004/1/4 15:00,0.005,0,0,0.0108,0.4922,0.1699,0.1869,0.4576,0
2004/1/4 15:15,0.005,0,0,0.0108,0.5378,0.1686,0.321,0.492,0
2004/1/4 15:30,0.0049,0,0,0.0108,0.3858,0.1683,0.3136,0.4889,0
2004/1/4 15:45,0.005,0,0,0.0109,0.4087,0.1699,0.2565,0.4857,0
2004/1/4 16:00,0.005,0,0,0.0109,0.5972,0.1691,0.2552,0.4802,0
2004/1/4 16:15,0.0052,0,0,0.0108,0.4395,0.1696,0.2471,0.4853,0
2004/1/4 16:30,0.0049,0,0,0.0108,0.4334,0.1675,0.3158,0.5109,0
2004/1/4 16:45,0.005,0,0,0.0109,0.3509,0.168,0.2536,0.5026,0
2004/1/4 17:00,0.0052,0,0.0012,0.0111,0.6337,0.1691,0.2465,0.5289,0
2004/1/4 17:15,0.0052,0,0.0009,0.0112,0.3789,0.1718,0.322,0.5262,0
2004/1/4 17:30,0.005,0,0,0.0111,0.4815,0.2352,0.1852,0.5371,0
2004/1/4 17:45,0.0052,0,0.0003,0.0111,0.3084,0.2513,0.3177,0.5196,0
2004/1/4 18:00,0.005,0,0.0001,0.0109,0.7069,0.2507,0.256,0.5031,0
2004/1/4 18:15,0.005,0,0.9829,0.0111,0.3312,0.2451,0.2563,0.6021,0